Location: Pescara
(42.4670°N, 14.2170°E)
Time: 16:55:48
(UTC+02:00)

ISS - Pass Details

Date: 11 May 2021
Orbit: 417 x 422 km, 51.6° (Epoch: 18 June)

Event Time Altitude Azimuth Distance (km) Brightness Sun altitude
Exits shadow 03:35:47 - 305° (NW) 2,193 -0.1 -19.7°
Reaches altitude 10° 03:37:49 10° 322° (NW) 1,509 -0.8 -19.5°
Maximum altitude 03:40:20 19° 10° (N) 1,075 -1.0 -19.2°
Drops below altitude 10° 03:42:51 10° 58° (ENE) 1,509 0.2 -18.9°
Sets 03:45:23 0° 77° (ENE) 2,374 1.0 -18.6°
